Вернуться в каталог

RADUGA 21

АктивенСвязьGEO
NORAD 18631·PAYLOAD·🇷🇺 Russia

Запущен Dec 10, 1987 с Baikonur Cosmodrome

Loading…

TLE

СвежийSource: Space-Track

Эпоха: Sep 14, 2026, 05:06 UTC

1 18631U 87100A   26257.21291162 -.00000301  00000-0  00000-0 0  9996
2 18631  11.1813 324.6615 0001743 287.4462 112.2401  1.00329579141981

Отслеживайте RADUGA 21 в реальном времени с AllMySat

Download on the App Store